Location: Praha
(50.0830°N, 14.4670°E)
Time: 04:49:18
(UTC+01:00)

ISS - Pass Details

Date: 28 February 2021
Orbit: 417 x 422 km, 51.6° (Epoch: 03 March)

Event Time Altitude Azimuth Distance (km) Brightness Sun altitude
Exits shadow 04:06:31 25° 90° (E) 880 -1.6 -26.3°
Drops below altitude 10° 04:08:10 10° 78° (ENE) 1,499 0.0 -26.0°
Sets 04:10:18 0° 73° (ENE) 2,365 1.4 -25.7°
